Ocean City, MD

4:04 PM EDT on April 22, 2018 (GMT -0400)
Ocean City Municipal

Weather History for KOXB - June, 2013

Change the Weather History Date:

Monday, June 3, 2013

  Actual Average (KSBY) Record (KSBY)
Temperature  
Mean Temperature 70 °F -  
Max Temperature 75 °F 78 °F 95 °F (1925)
Min Temperature 64 °F 57 °F 44 °F (2003)
Cooling Degree Days 4    
Growing Degree Days 20 (Base 50)    
Moisture  
Dew Point 69 °F    
Average Humidity 97    
Maximum Humidity 100    
Minimum Humidity 87    
Precipitation  
Precipitation 1.20 in - - ()
Sea Level Pressure  
Sea Level Pressure 29.87 in    
Wind  
Wind Speed 7 mph (SW)    
Max Wind Speed 14 mph    
Max Gust Speed 30 mph    
Visibility 7 miles    
Events Fog , Rain    
Averages and records for this station are not official NWS values.
T = Trace of Precipitation, MM = Missing Value Source: NWS Daily Summary

Daily Weather History Graph

Daily Weather History Graph

Search for Another Location

Airport or City:

Astronomy

Jun. 03, 2013 Rise Set
Actual Time 5:37 AM EDT 8:19 PM EDT
Civil Twilight 5:06 AM EDT 8:50 PM EDT
Nautical Twilight 4:27 AM EDT 9:29 PM EDT
Astronomical Twilight 3:44 AM EDT 10:13 PM EDT
Moon 2:30 AM EDT (6/3) 3:51 PM EDT (6/3)
Length of Visible Light 15h 44m
Length of Day
14h 41m
Waning Crescent, 22% of the Moon is Illuminated
Jun 3
Waning Crescent
Jun 8
New
Jun 16
First Quarter
Jun 23
Full
Jun 30
Last Quarter

Hourly Weather History & Observations

Time (EDT) Temp. Dew Point Humidity Pressure Visibility Wind Dir Wind Speed Gust Speed Precip Events Conditions
12:53 AM 73.0 °F 69.1 °F 87% 29.90 in 10.0 mi West 4.6 mph - N/A   Partly Cloudy
1:53 AM 73.0 °F 69.1 °F 87% 29.91 in 10.0 mi Variable 5.8 mph - N/A   Mostly Cloudy
2:53 AM 71.1 °F 70.0 °F 96% 29.90 in 8.0 mi SSW 3.5 mph - 0.01 in Rain Light Rain
3:53 AM 68.0 °F 66.9 °F 96% 29.89 in 10.0 mi SSW 5.8 mph - 0.00 in   Mostly Cloudy
4:53 AM 66.9 °F 66.0 °F 97% 29.88 in 9.0 mi Variable 6.9 mph - 0.00 in   Mostly Cloudy
5:37 AM 66.2 °F 66.2 °F 100% 29.89 in 10.0 mi SSW 6.9 mph - N/A   Mostly Cloudy
5:53 AM 68.0 °F 66.9 °F 96% 29.90 in 10.0 mi SSW 5.8 mph - N/A   Overcast
6:39 AM 69.8 °F 69.8 °F 100% 29.90 in 10.0 mi SW 6.9 mph - N/A   Mostly Cloudy
6:53 AM 70.0 °F 69.1 °F 97% 29.90 in 10.0 mi SW 6.9 mph - N/A   Overcast
7:02 AM 69.8 °F 69.8 °F 100% 29.90 in 10.0 mi South 5.8 mph - N/A   Mostly Cloudy
7:33 AM 71.6 °F 69.8 °F 94% 29.90 in 10.0 mi SW 10.4 mph - N/A   Overcast
7:43 AM 71.6 °F 69.8 °F 94% 29.90 in 10.0 mi SW 11.5 mph - N/A   Overcast
7:49 AM 71.6 °F 69.8 °F 94% 29.90 in 10.0 mi SW 9.2 mph - N/A   Overcast
7:53 AM 72.0 °F 70.0 °F 93% 29.90 in 10.0 mi SW 9.2 mph - N/A   Overcast
8:06 AM 71.6 °F 69.8 °F 94% 29.90 in 10.0 mi SSW 12.7 mph 17.3 mph N/A   Overcast
8:13 AM 71.6 °F 69.8 °F 94% 29.90 in 10.0 mi SW 12.7 mph 18.4 mph N/A   Overcast
8:23 AM 73.4 °F 71.6 °F 94% 29.89 in 10.0 mi SW 11.5 mph - N/A   Overcast
8:53 AM 73.0 °F 71.1 °F 93% 29.89 in 10.0 mi SW 13.8 mph 20.7 mph N/A   Mostly Cloudy
9:53 AM 73.0 °F 71.1 °F 93% 29.89 in 10.0 mi SSW 8.1 mph - 0.01 in   Overcast
10:10 AM 71.6 °F 69.8 °F 94% 29.88 in 1.5 mi SSW 8.1 mph - 0.11 in Rain Heavy Rain
10:14 AM 71.6 °F 69.8 °F 94% 29.87 in 0.5 mi Variable 5.8 mph 19.6 mph 0.24 in Fog , Rain Heavy Rain
10:21 AM 69.8 °F 69.8 °F 100% 29.88 in 1.0 mi Variable 4.6 mph - 0.26 in Rain Light Rain
10:24 AM 69.8 °F 69.8 °F 100% 29.88 in 2.0 mi Variable 5.8 mph - 0.26 in Rain Light Rain
10:30 AM 68.0 °F 68.0 °F 100% 29.89 in 1.8 mi SW 8.1 mph - 0.34 in Rain Light Rain
10:39 AM 69.8 °F 69.8 °F 100% 29.88 in 0.8 mi WSW 12.7 mph 21.9 mph 0.51 in Rain Rain
10:50 AM 71.6 °F 71.6 °F 100% 29.88 in 0.5 mi SW 13.8 mph 29.9 mph 0.89 in Fog , Rain Heavy Rain
10:53 AM 71.1 °F 70.0 °F 96% 29.88 in 0.5 mi WSW 11.5 mph 29.9 mph 0.90 in Fog , Rain Heavy Rain
10:59 AM 71.6 °F 71.6 °F 100% 29.87 in 2.5 mi WSW 10.4 mph - 0.00 in Rain Light Rain
11:04 AM 73.4 °F 71.6 °F 94% 29.87 in 7.0 mi WSW 11.5 mph - 0.00 in Rain Light Rain
11:37 AM 73.4 °F 71.6 °F 94% 29.87 in 10.0 mi SSW 9.2 mph 19.6 mph 0.00 in   Mostly Cloudy
11:53 AM 75.0 °F 73.0 °F 94% 29.87 in 10.0 mi SW 9.2 mph 21.9 mph 0.00 in   Mostly Cloudy
12:05 PM 73.4 °F 71.6 °F 94% 29.87 in 10.0 mi SSW 9.2 mph 18.4 mph N/A   Mostly Cloudy
12:40 PM 69.8 °F 69.8 °F 100% 29.86 in 7.0 mi SSW 8.1 mph - 0.03 in Rain Light Rain
12:53 PM 72.0 °F 70.0 °F 93% 29.86 in 10.0 mi SW 12.7 mph 19.6 mph 0.03 in   Mostly Cloudy
1:38 PM 71.6 °F 69.8 °F 94% 29.85 in 10.0 mi SW 11.5 mph 23.0 mph N/A   Mostly Cloudy
1:45 PM 73.4 °F 71.6 °F 94% 29.85 in 10.0 mi SW 11.5 mph - N/A   Mostly Cloudy
1:53 PM 73.0 °F 71.1 °F 93% 29.84 in 10.0 mi SW 12.7 mph - N/A   Mostly Cloudy
2:53 PM 72.0 °F 70.0 °F 93% 29.85 in 9.0 mi SW 9.2 mph - 0.02 in Rain Light Rain
3:32 PM 71.6 °F 71.6 °F 100% 29.85 in 2.5 mi SSW 3.5 mph - 0.06 in Rain Light Rain
3:53 PM 72.0 °F 71.1 °F 97% 29.85 in 4.0 mi Variable 3.5 mph - 0.11 in Rain Light Rain
4:12 PM 71.6 °F 71.6 °F 100% 29.85 in 7.0 mi Calm Calm - 0.01 in Rain Light Rain
4:27 PM 69.8 °F 69.8 °F 100% 29.85 in 1.8 mi SSE 5.8 mph - 0.06 in Rain Rain
4:35 PM 66.2 °F 66.2 °F 100% 29.85 in 2.0 mi South 5.8 mph - 0.09 in Rain Rain
4:44 PM 66.2 °F 66.2 °F 100% 29.85 in 3.0 mi South 5.8 mph - 0.11 in Rain Light Rain
4:53 PM 66.0 °F 66.0 °F 100% 29.83 in 4.0 mi South 3.5 mph - 0.11 in Rain Light Rain
5:24 PM 66.2 °F 66.2 °F 100% 29.83 in 5.0 mi SSW 3.5 mph - 0.00 in   Overcast
5:37 PM 69.8 °F 69.8 °F 100% 29.83 in 5.0 mi SW 5.8 mph - 0.01 in   Overcast
5:53 PM 69.1 °F 69.1 °F 100% 29.82 in 10.0 mi South 5.8 mph - 0.01 in   Overcast
6:53 PM 66.9 °F 66.9 °F 100% 29.82 in 8.0 mi Variable 5.8 mph - N/A   Overcast
7:53 PM 66.0 °F 66.0 °F 100% 29.84 in 3.0 mi South 4.6 mph - N/A   Overcast
8:53 PM 64.9 °F 64.9 °F 100% 29.85 in 6.0 mi Calm Calm - N/A   Mostly Cloudy
9:25 PM 64.4 °F 64.4 °F 100% 29.85 in 3.0 mi Calm Calm - N/A   Mostly Cloudy
9:53 PM 66.9 °F 66.9 °F 100% 29.86 in 1.8 mi Calm Calm - N/A   Overcast
10:08 PM 66.2 °F 66.2 °F 100% 29.86 in 0.8 mi Calm Calm - N/A   Overcast
10:17 PM 68.0 °F 68.0 °F 100% 29.86 in 2.0 mi WSW 3.5 mph - N/A   Overcast
10:26 PM 69.8 °F 69.8 °F 100% 29.86 in 6.0 mi Calm Calm - N/A   Overcast
10:53 PM 70.0 °F 70.0 °F 100% 29.87 in 7.0 mi West 3.5 mph - N/A   Overcast
11:53 PM 68.0 °F 68.0 °F 100% 29.89 in 9.0 mi WNW 4.6 mph - N/A   Mostly Cloudy